Lapse_Rate
6.0 5.8 5.8 5.5 5.9 6.1 6.1 6.4 6.5 6.7 6.8 7.1 7.1 7.2 7.2 7.1 7.1 6.8 6.8 6.4 6.6 7.0 6.6 6.2 6.2 6.2 6.1 6.0 5.7 4.8 4.5 4.1 4.1 4.5 4.1 3.4 3.0 3.4 3.5 3.6 3.4 3.3 3.5 3.1 3.3 3.4 3.6 4.6 4.3 4.6 5.2 4.8 4.8 4.6
6.6 6.2 6.1 5.8 5.5 5.5 6.1 6.3 6.4 6.2 6.7 6.7 6.8 7.2 7.2 7.1 7.1 6.9 6.6 6.6 6.5 6.7 6.7 6.2 5.8 5.9 6.4 6.4 5.9 5.2 4.9 4.1 3.8 4.1 3.7 3.5 3.0 3.2 4.0 3.7 4.1 4.3 4.8 4.7 4.7 4.8 5.1 5.0 5.1 5.0 4.8 4.8 4.7 4.5
6.9 6.8 6.6 6.3 6.0 5.4 5.3 5.9 5.7 5.6 5.8 6.1 6.5 6.7 7.3 6.7 6.8 6.7 6.4 6.5 6.7 6.5 6.6 6.1 5.8 5.7 5.9 5.7 5.4 5.4 4.8 4.9 5.0 4.9 4.6 4.1 4.1 4.2 4.2 4.4 4.7 4.5 4.4 4.9 5.1 5.0 5.2 5.3 4.8 4.7 4.5 4.3 4.6 4.8
7.0 6.9 6.9 6.7 6.6 6.3 5.6 5.4 5.2 5.4 5.5 5.6 6.0 6.5 6.7 6.8 7.1 6.8 6.4 6.6 6.6 6.5 5.5 5.0 5.1 5.4 5.3 5.5 5.4 5.1 5.0 4.8 4.9 4.6 4.6 4.3 4.9 4.8 4.8 5.0 5.0 4.9 5.0 5.2 5.3 5.1 5.6 5.1 5.1 4.8 4.7 4.9 5.3 5.6
7.2 7.2 6.9 6.8 6.7 6.7 6.6 6.1 5.6 5.2 5.5 5.4 5.7 5.5 5.6 6.1 6.6 6.7 6.5 6.7 6.1 6.5 5.1 5.0 4.8 4.5 4.2 3.7 4.3 4.5 4.6 4.7 4.5 4.2 4.4 5.1 5.2 5.0 5.1 5.0 5.0 5.7 5.7 5.4 5.5 5.9 5.2 5.4 5.5 5.6 5.7 5.9 5.9 6.2
7.3 7.1 7.1 7.1 6.8 6.7 6.8 6.7 6.4 6.0 5.9 5.6 5.3 5.3 5.4 5.5 5.8 5.8 5.7 5.6 5.6 5.9 4.7 4.2 3.7 3.5 3.6 3.6 4.0 4.3 4.5 4.6 4.8 5.0 5.0 5.0 5.2 5.2 5.2 5.4 6.0 5.5 5.1 5.6 5.7 5.2 5.6 5.8 6.0 6.2 6.6 7.3 7.4 7.4
7.4 7.4 7.1 6.9 7.0 6.9 6.7 6.7 6.8 6.6 6.4 6.4 6.2 5.9 5.4 5.3 5.4 6.1 5.7 4.7 5.2 5.5 5.4 4.2 3.6 3.8 4.0 4.6 5.3 5.4 5.3 5.5 5.5 5.5 5.3 5.4 5.3 5.3 5.4 5.7 5.2 5.4 5.9 5.9 5.9 6.1 6.3 6.6 7.3 7.4 7.4 7.3 7.3 7.3
7.3 7.4 7.4 7.1 6.9 6.9 6.8 6.6 6.5 6.7 6.8 6.7 6.6 6.7 6.6 6.5 6.3 6.3 5.7 5.3 5.1 5.6 5.4 4.7 4.2 4.5 4.9 5.2 5.4 5.5 5.6 5.5 5.3 5.3 5.1 5.0 5.1 5.6 5.8 5.8 5.9 6.1 6.3 6.4 6.7 7.3 7.4 7.3 7.3 7.3 7.4 7.4 7.3 7.3
6.9 7.2 7.4 7.4 7.1 6.8 6.9 6.8 6.5 6.4 6.5 6.6 6.7 6.8 6.6 6.8 6.8 6.5 6.3 6.4 6.3 6.4 5.9 5.1 5.1 4.8 5.0 5.4 5.6 5.3 5.2 5.0 4.9 5.0 5.2 5.4 5.8 6.1 5.8 6.4 6.4 6.7 6.9 7.3 7.4 7.4 7.5 7.4 7.4 7.4 7.4 7.4 7.4 7.6
7.1 7.1 7.2 7.3 7.3 7.1 7.0 6.8 6.7 6.7 6.5 6.6 6.7 6.6 6.6 6.7 6.7 6.6 6.7 6.8 6.9 6.8 6.3 5.6 5.6 5.5 5.4 5.6 5.6 5.6 5.6 5.6 5.8 5.8 5.8 6.1 6.6 6.3 6.9 7.1 7.2 7.5 7.6 7.6 7.4 7.4 7.4 7.5 7.6 7.7 7.6 7.5 7.4 7.4
7.2 7.4 7.4 7.5 7.5 7.5 7.4 7.3 7.1 7.0 6.9 6.9 6.7 6.7 6.7 6.7 6.9 7.0 6.8 6.7 6.5 6.1 6.0 6.1 6.1 6.3 6.1 6.3 6.4 6.1 6.1 6.3 6.4 6.5 6.6 6.6 6.8 7.5 7.7 7.8 7.8 7.8 7.7 7.6 7.6 7.7 7.6 7.7 7.7 7.8 7.8 7.7 7.7 7.6
7.0 7.3 7.4 7.6 7.6 7.5 7.7 7.9 7.8 7.6 7.5 7.3 7.2 7.2 7.2 7.3 7.3 7.3 7.0 7.0 7.0 6.5 6.3 6.5 6.7 6.8 6.9 6.9 7.1 7.2 7.2 7.3 7.1 7.2 7.2 7.2 7.5 7.8 7.8 7.7 7.8 7.8 7.7 7.8 7.8 7.8 7.7 7.7 7.8 7.8 7.7 7.7 7.7 7.6
6.7 7.0 7.4 7.6 7.7 7.7 7.9 8.1 8.2 8.2 8.1 8.0 8.0 8.1 8.1 8.2 8.1 7.9 7.5 7.5 7.2 7.4 7.5 7.5 7.4 7.4 7.3 7.4 7.4 7.4 7.4 7.3 7.3 7.2 7.4 7.6 7.8 7.8 7.6 7.7 7.7 7.8 7.9 8.0 7.8 7.7 7.6 7.7 7.7 7.7 7.7 7.5 7.4 7.5
6.3 6.6 7.0 7.4 7.7 7.8 8.1 8.1 8.2 8.2 8.3 8.3 8.4 8.4 8.3 8.1 8.0 8.1 8.2 8.0 7.8 7.6 7.7 7.6 7.7 7.8 7.6 7.5 7.5 7.4 7.3 7.2 7.0 7.1 7.6 7.9 7.8 7.8 7.8 7.8 7.8 7.9 8.0 7.9 7.8 7.8 7.7 7.7 7.7 7.5 7.4 7.4 7.3 7.3
5.8 6.2 6.6 7.0 7.3 7.7 8.0 8.1 8.2 8.2 8.2 8.2 8.2 8.1 8.1 7.9 7.7 7.8 7.9 7.8 7.8 7.6 7.8 7.7 7.8 7.9 7.8 7.7 7.6 7.5 7.3 7.3 7.3 7.6 7.8 7.8 7.7 7.8 7.8 7.9 8.0 8.0 7.9 7.9 7.9 7.7 7.7 7.7 7.5 7.4 7.3 7.2 7.2 7.3
5.5 5.7 6.2 6.6 7.1 7.4 7.6 7.9 8.1 8.2 8.2 8.2 8.1 8.0 7.7 7.7 7.6 7.7 7.7 7.9 7.9 8.0 8.0 8.0 8.0 7.8 7.7 7.7 7.6 7.5 7.4 7.7 7.9 7.9 7.8 7.8 7.7 7.8 7.8 7.9 8.0 8.0 8.0 8.0 7.9 7.8 7.6 7.5 7.4 7.3 7.1 7.0 7.0 7.2
5.3 5.4 5.7 6.3 6.8 7.1 7.3 7.6 7.8 8.0 8.1 8.1 8.1 8.0 7.9 7.8 7.7 7.7 7.8 7.9 7.9 8.0 8.0 7.8 7.8 7.7 7.5 7.5 7.5 7.6 7.9 8.0 8.0 7.9 7.8 7.8 7.9 7.9 8.0 8.0 8.1 8.1 8.0 7.9 7.8 7.6 7.4 7.3 7.2 7.2 7.0 6.8 6.9 6.9
5.3 5.2 5.4 5.9 6.5 6.9 7.1 7.3 7.5 7.6 7.7 7.7 7.8 7.9 7.8 7.8 7.8 7.8 7.7 7.6 7.6 7.6 7.5 7.5 7.5 7.6 7.7 7.7 8.0 8.2 8.1 8.0 7.9 7.8 7.7 7.7 7.8 7.9 7.9 7.8 7.8 7.9 7.8 7.6 7.4 7.2 7.1 7.1 7.0 7.0 6.9 6.9 6.8 6.9
5.5 5.4 5.4 5.5 5.9 6.5 6.8 7.2 7.3 7.4 7.5 7.5 7.5 7.6 7.6 7.7 7.7 7.6 7.6 7.7 7.6 7.5 7.3 7.3 7.5 7.8 7.9 7.9 7.8 7.7 7.7 7.9 7.8 7.8 7.7 7.7 7.7 7.7 7.7 7.7 7.7 7.7 7.6 7.5 7.4 7.2 7.1 7.0 6.9 6.8 6.8 6.8 6.8 6.7
5.8 5.7 5.6 5.6 5.6 5.9 6.3 6.7 7.0 7.2 7.5 7.7 7.7 7.6 7.5 7.5 7.4 7.5 7.5 7.5 7.6 7.4 7.4 7.4 8.0 8.1 7.8 7.7 7.7 7.7 7.7 7.6 7.6 7.6 7.6 7.6 7.6 7.5 7.5 7.7 7.6 7.5 7.4 7.4 7.3 7.2 7.2 7.1 6.9 6.8 6.7 6.6 6.6 6.7
5.8 5.7 5.6 5.6 5.6 5.5 5.7 6.2 6.7 7.1 7.3 7.6 7.7 7.7 7.7 7.7 7.6 7.6 7.5 7.7 7.7 7.5 7.5 7.8 8.2 8.0 7.8 7.7 7.5 7.5 7.6 7.6 7.5 7.4 7.4 7.3 7.4 7.4 7.5 7.5 7.5 7.4 7.4 7.4 7.3 7.3 7.2 6.9 6.7 6.6 6.6 6.7 6.7 6.7
6.0 5.7 5.6 5.5 5.5 5.6 5.7 6.0 6.3 6.5 6.8 7.2 7.4 7.5 7.5 7.7 7.8 7.8 7.6 7.4 7.3 7.4 7.6 7.7 7.8 7.8 7.7 7.6 7.4 7.3 7.5 7.5 7.4 7.4 7.3 7.3 7.3 7.4 7.5 7.4 7.4 7.4 7.4 7.2 7.2 7.2 7.1 7.0 6.9 6.7 6.7 6.7 6.8 6.8
5.9 5.6 5.3 5.4 5.5 5.6 6.0 6.1 6.2 6.5 6.5 6.8 7.2 7.3 7.4 7.6 7.7 7.7 7.6 7.5 7.4 7.3 7.4 7.6 7.8 8.0 7.9 7.7 7.5 7.5 7.6 7.5 7.4 7.3 7.3 7.4 7.4 7.4 7.3 7.4 7.5 7.5 7.5 7.4 7.3 7.2 7.1 7.0 6.9 6.8 6.8 6.8 6.8 6.8
5.7 5.5 5.2 5.4 5.5 5.8 6.1 6.4 6.5 6.7 7.1 7.2 7.6 7.8 7.8 7.7 7.5 7.6 7.9 7.7 7.6 7.6 7.8 7.9 8.0 7.9 7.9 7.7 7.6 7.6 7.5 7.6 7.6 7.5 7.5 7.5 7.5 7.4 7.5 7.6 7.6 7.7 7.7 7.7 7.5 7.4 7.2 7.1 7.0 6.7 6.5 6.5 6.6 6.6
5.6 5.2 5.1 5.3 5.5 5.7 5.9 6.2 6.7 7.2 7.7 7.8 7.9 8.2 8.1 8.2 8.2 8.0 8.1 7.8 7.9 7.9 7.8 7.8 7.8 7.7 7.7 7.5 7.5 7.4 7.5 7.7 7.8 7.8 7.8 7.6 7.6 7.5 7.6 7.8 7.7 7.7 7.8 7.8 7.7 7.6 7.5 7.4 7.2 7.0 6.7 6.4 6.3 6.5
5.5 5.2 5.3 5.3 5.4 5.4 5.6 5.9 6.3 6.7 7.0 7.4 7.7 7.9 7.8 7.9 8.0 8.1 7.9 7.8 7.6 7.4 7.2 7.2 7.4 7.6 7.5 7.6 7.6 7.6 7.7 7.8 7.8 7.8 7.8 7.5 7.3 7.4 7.5 7.6 7.6 7.6 7.7 7.8 7.8 7.8 7.8 7.6 7.6 7.5 7.3 7.1 6.9 6.7
5.7 5.5 5.7 5.6 5.5 5.4 5.2 5.3 5.7 6.0 6.1 6.4 7.0 7.4 7.6 8.0 8.0 7.7 7.7 7.4 6.9 6.6 6.6 6.5 6.5 6.5 6.6 6.7 6.9 6.9 7.0 7.1 7.2 7.2 7.4 7.2 6.6 6.7 6.9 7.3 7.4 7.4 7.5 7.7 7.7 7.7 7.7 7.7 7.6 7.6 7.6 7.6 7.6 7.5
5.6 5.4 5.3 5.3 5.1 5.1 5.0 4.9 5.0 5.2 5.4 5.6 5.9 6.3 6.9 7.0 6.9 6.9 6.9 6.8 6.7 6.4 6.3 6.2 6.3 6.4 6.2 6.1 6.2 6.2 6.3 6.5 6.6 6.7 6.7 6.8 6.8 6.8 6.9 7.0 7.2 7.4 7.2 7.5 7.5 7.5 7.6 7.6 7.5 7.4 7.5 7.6 7.6 7.7
5.4 5.1 5.2 5.2 5.1 4.9 4.7 4.4 4.6 4.9 5.1 5.1 5.2 5.4 5.7 6.1 6.1 6.1 6.2 6.3 6.3 6.2 6.1 6.1 6.1 6.0 6.1 6.2 6.4 6.4 6.3 6.4 6.5 6.5 6.5 6.6 6.7 6.8 6.8 6.8 6.9 7.1 7.0 7.3 7.4 7.4 7.4 7.4 7.4 7.4 7.3 7.3 7.4 7.4
5.2 5.0 5.1 5.0 4.9 4.7 4.4 4.3 4.4 4.6 4.5 4.5 4.6 4.8 4.9 5.2 5.4 5.6 5.7 5.8 5.8 5.9 6.0 5.9 5.7 5.6 5.7 5.8 6.0 6.2 6.2 6.2 6.3 6.3 6.3 6.3 6.4 6.5 6.6 6.6 6.7 6.8 6.9 7.0 7.0 7.2 7.3 7.3 7.3 7.4 7.4 7.3 7.3 7.3
5.1 5.0 5.1 4.9 4.9 4.8 4.6 4.5 4.7 4.8 4.7 4.6 4.5 4.4 4.5 4.8 5.0 5.1 5.3 5.3 5.3 5.3 5.4 5.4 5.5 5.6 5.5 5.3 5.4 5.6 5.9 6.0 6.0 6.0 6.2 6.2 6.2 6.2 6.3 6.3 6.4 6.5 6.7 6.7 6.8 6.8 6.9 6.9 7.1 7.1 7.0 7.0 7.0 7.0
5.2 5.0 4.9 4.9 5.0 4.8 4.7 4.8 5.0 5.1 4.9 4.8 4.8 4.7 4.8 4.9 5.0 5.3 5.3 5.3 5.4 5.4 5.3 5.2 5.2 5.1 5.1 5.2 5.2 5.3 5.2 5.4 5.6 5.7 5.7 5.8 6.0 6.1 6.2 6.2 6.2 6.2 6.2 6.3 6.4 6.6 6.8 6.8 6.7 6.7 6.8 6.7 6.7 6.8
5.2 4.9 4.9 5.1 5.1 4.9 4.8 4.9 5.1 5.2 5.3 5.4 5.4 5.5 5.7 5.8 5.8 5.8 5.7 5.6 5.5 5.4 5.3 5.2 5.2 5.2 5.3 5.4 5.3 5.3 5.3 5.2 5.2 5.3 5.4 5.5 5.6 5.7 5.7 5.8 6.0 6.2 6.3 6.5 6.6 6.6 6.7 6.8 6.8 6.7 6.7 6.7 6.8 6.9
Wind_Speed
33 33 34 34 35 35 35 35 34 32 21 7 20 20 23 22 24 10 2 7 6 2 4 4 2 7 8 9 12 12 6 1 1 4 3 3 4 6 6 12 12 10 9 5 4 5 9 11 7 8 4 4 4 3
31 32 32 33 34 34 34 35 34 32 30 25 25 9 22 26 27 10 3 5 7 1 4 7 10 7 4 3 14 5 5 4 4 5 3 4 3 3 7 7 3 6 6 7 7 5 1 13 7 6 5 2 3 5
28 29 31 31 31 32 33 32 32 32 29 30 25 25 22 20 23 7 5 10 8 6 7 5 8 13 13 8 6 5 2 4 3 2 4 3 4 3 4 4 5 2 3 3 5 6 5 11 3 2 2 6 8 8
27 27 28 29 30 30 31 30 30 29 29 26 25 25 25 26 23 15 5 1 2 3 4 5 4 6 6 4 4 6 9 7 6 3 4 3 3 2 3 4 3 2 9 7 1 2 4 6 10 9 6 5 6 6
24 25 26 27 28 28 29 29 29 28 28 26 27 20 26 28 27 14 8 7 0 4 6 8 13 13 7 13 18 14 10 7 3 3 4 2 2 3 2 2 2 5 5 5 4 7 5 3 3 3 4 5 8 10
22 23 23 25 26 26 27 27 27 26 26 25 24 26 14 10 3 3 6 5 8 4 5 4 1 9 14 17 17 13 7 5 3 4 3 3 1 2 2 2 3 5 5 6 5 4 4 3 3 5 8 9 9 7
21 22 24 24 24 25 26 26 25 23 23 22 20 22 24 25 11 6 4 4 13 2 3 4 3 6 5 6 5 5 8 4 4 3 3 2 2 3 2 3 3 7 9 6 4 3 4 6 7 6 6 6 8 8
19 20 22 23 24 25 24 25 25 23 22 20 17 13 17 12 9 6 5 14 5 5 4 4 4 4 7 4 3 3 2 2 5 3 2 3 2 2 2 6 3 3 5 6 8 8 8 3 4 6 4 5 6 9
17 18 19 20 22 23 24 25 25 21 19 17 12 10 6 7 4 3 20 7 3 4 4 3 4 5 1 1 2 2 2 4 3 3 2 2 3 4 5 6 9 9 7 4 6 7 5 6 4 3 5 8 9 10
18 17 17 17 19 20 22 24 27 22 14 9 7 4 4 3 14 10 6 5 6 4 4 3 0 3 3 2 2 2 3 3 2 1 4 2 3 6 5 7 4 6 6 5 4 4 4 2 2 4 6 7 8 10
19 19 19 18 18 18 20 22 25 21 13 4 4 2 2 9 3 4 3 4 2 4 3 2 3 4 3 3 3 1 3 2 3 3 4 3 2 1 4 8 5 7 8 7 8 8 5 2 2 5 7 7 8 9
19 19 19 19 18 17 17 18 20 6 2 1 0 1 2 4 3 6 3 2 5 3 2 3 2 3 3 1 3 2 3 1 2 5 2 2 2 5 7 7 8 9 10 9 7 6 3 2 3 4 7 8 8 8
17 19 19 17 16 17 15 16 17 9 2 2 3 4 3 3 7 4 2 2 3 3 4 4 4 2 1 3 3 3 3 2 5 2 2 2 5 5 8 7 7 7 7 6 3 2 2 2 2 4 6 7 8 8
16 18 17 16 20 13 13 14 15 7 3 3 4 5 3 3 2 2 2 3 2 6 7 6 4 2 2 2 2 3 2 2 2 2 3 5 7 7 6 5 6 4 3 2 1 2 1 1 3 5 4 5 5 8
16 16 11 13 20 15 11 13 12 3 2 3 2 2 2 2 1 2 1 3 3 6 4 4 3 2 2 3 1 3 3 2 4 3 2 5 7 7 7 7 6 5 3 1 1 1 3 3 3 4 4 5 7 6
17 8 6 19 19 9 12 7 4 2 2 2 3 2 1 1 2 2 2 3 2 3 2 2 3 2 2 3 3 3 5 4 3 3 3 7 8 7 7 7 5 4 3 2 2 0 2 3 3 4 4 4 7 7
9 2 15 16 16 12 11 3 3 4 2 2 1 0 1 1 1 1 1 1 2 2 2 2 3 2 2 2 3 3 3 2 3 3 5 6 6 4 4 4 3 2 2 2 1 3 3 3 2 4 7 8 7 8
1 4 15 15 12 4 3 2 2 2 2 0 0 2 1 1 1 1 1 3 2 2 2 2 3 2 4 4 3 2 2 2 3 5 5 5 5 4 4 4 2 1 1 2 1 1 2 4 5 4 6 6 7 7
6 6 12 13 6 3 3 2 1 2 1 1 1 1 1 2 2 1 1 4 0 2 4 3 2 3 3 3 3 3 4 4 4 4 4 5 5 5 4 2 2 3 1 0 1 1 1 2 2 3 3 4 4 5
7 8 11 6 2 2 2 1 0 1 2 1 1 1 2 1 0 1 3 4 4 2 3 4 5 3 3 3 4 3 4 6 5 5 3 2 2 4 3 2 2 3 2 1 1 2 3 3 3 2 3 4 4 5
5 3 7 2 0 1 2 2 2 2 2 2 2 2 1 1 2 3 3 4 3 3 3 3 3 2 2 1 2 2 5 6 4 3 3 5 4 4 3 3 3 3 2 1 1 1 1 1 2 3 4 3 3 3
2 7 2 2 1 2 2 2 2 1 1 2 2 2 2 2 3 4 4 3 2 2 3 3 3 2 3 4 4 4 5 6 6 6 5 6 5 4 3 3 3 2 2 1 2 1 1 2 2 2 3 4 3 2
4 3 2 1 3 2 4 1 2 2 2 2 1 2 2 2 2 5 3 2 4 5 6 6 8 7 5 1 3 5 5 9 6 5 5 4 5 5 5 3 2 0 2 3 3 2 2 4 3 3 4 3 3 2
2 1 1 2 1 3 3 2 2 3 1 1 2 3 3 1 4 2 3 3 4 7 8 12 7 3 2 4 2 3 2 4 6 5 4 6 6 5 5 4 4 5 4 3 3 3 3 4 4 4 5 5 3 3
1 4 3 4 3 4 4 5 3 3 3 3 4 3 4 4 2 3 2 3 6 7 8 9 9 8 6 6 6 6 9 3 5 6 3 4 4 3 4 6 6 5 4 4 4 3 3 4 5 6 6 6 6 5
3 3 3 0 2 2 2 3 4 4 3 4 4 4 3 2 3 3 2 4 4 6 7 8 8 6 8 7 6 6 6 5 3 5 4 4 3 3 4 5 4 3 5 4 3 3 4 4 4 6 6 8 8 7
2 1 1 2 1 2 3 2 2 3 4 3 3 4 4 3 2 2 2 4 3 4 5 6 6 6 6 6 5 5 5 5 4 6 6 7 7 7 5 4 5 2 3 4 4 4 4 5 5 6 6 6 4 5
2 1 3 3 2 2 2 2 2 2 2 3 3 4 1 1 1 1 2 3 3 4 5 5 6 5 4 5 5 5 5 5 8 7 7 7 7 6 7 5 5 6 4 4 4 3 3 4 4 5 6 7 8 6
2 0 3 4 3 2 1 1 1 1 3 1 1 1 1 2 2 1 2 2 3 3 4 5 5 5 5 4 5 5 5 6 4 4 5 3 2 4 4 4 4 4 4 4 5 4 6 6 6 6 7 6 6 6
1 1 3 2 3 1 2 1 2 2 2 2 1 2 2 1 1 2 1 2 2 2 2 2 2 4 4 5 4 6 4 5 6 4 3 2 2 3 2 3 3 3 4 5 6 6 6 3 3 2 4 4 3 4
1 2 3 2 2 2 1 3 2 1 2 2 2 2 2 1 0 0 1 1 1 1 2 2 3 3 3 4 3 4 3 1 5 5 4 4 4 2 1 2 2 2 3 4 4 4 5 4 4 5 6 6 6 4
2 2 3 1 2 3 4 3 2 2 3 2 2 2 2 1 2 1 1 1 1 1 1 1 1 2 2 2 2 3 5 5 5 5 8 5 4 3 3 3 2 2 3 4 4 3 3 5 5 5 5 5 3 1
2 2 2 2 4 4 3 3 4 5 3 2 2 0 1 2 4 3 0 0 2 2 2 2 3 3 4 5 5 3 2 3 5 6 6 6 5 4 2 2 2 3 4 4 3 3 3 3 2 2 0 1 3 4
Wind_Direction
13 15 16 19 24 28 30 34 40 43 52 167 196 190 194 190 184 167 130 166 163 354 6 151 104 137 136 150 151 156 116 185 105 96 113 148 140 178 136 155 169 167 157 177 171 201 249 164 142 191 137 154 178 200
14 16 17 19 22 28 32 34 36 40 51 53 52 98 202 180 167 132 104 96 87 318 89 61 59 50 32 124 125 144 96 113 152 114 148 128 111 151 142 167 178 175 175 168 184 201 190 172 183 164 147 183 223 227
14 15 16 17 19 22 27 33 37 38 41 54 64 58 71 167 166 112 105 123 110 137 75 56 52 79 67 61 60 112 69 136 95 109 132 117 119 166 152 164 130 121 128 122 151 179 186 198 186 204 239 244 254 261
12 14 16 16 16 17 19 23 27 34 47 41 56 69 76 79 82 78 86 306 86 84 91 52 46 38 345 78 89 87 109 87 109 83 85 98 118 228 140 128 119 138 152 152 120 205 164 201 211 217 221 237 257 262
11 12 12 15 15 14 13 14 16 20 24 37 49 61 85 89 94 89 71 39 118 129 111 101 66 26 87 98 84 91 111 101 69 74 71 92 106 124 53 100 159 180 152 166 191 199 203 195 162 213 271 253 260 280
11 10 12 12 12 12 11 9 8 11 17 20 27 46 63 130 194 102 88 11 13 26 87 87 15 32 46 67 65 61 63 72 77 91 95 91 54 92 94 158 264 205 196 181 210 185 201 253 273 262 268 265 273 269
7 9 9 9 11 10 7 6 2 3 9 16 20 29 49 69 70 57 70 295 327 6 96 78 62 356 354 35 34 28 31 47 64 88 65 93 71 61 104 187 250 214 221 218 218 144 273 243 256 257 250 254 284 276
4 6 8 8 6 4 4 3 1 358 358 5 13 26 38 45 78 39 5 4 355 80 58 80 65 29 10 36 66 348 73 44 31 102 95 94 101 61 242 225 220 195 202 222 226 208 232 263 259 248 258 282 296 303
359 2 3 4 5 3 359 358 358 355 351 352 3 23 36 32 30 312 319 335 20 85 99 90 130 139 28 76 107 68 37 63 13 66 79 127 127 221 225 180 191 201 195 181 177 189 198 217 245 293 305 300 291 311
351 355 357 359 0 1 0 358 354 356 354 6 28 35 25 321 308 327 4 25 23 4 44 78 318 90 74 44 47 76 31 99 110 94 125 191 233 259 266 230 185 165 184 166 173 186 151 125 318 311 304 313 314 303
350 351 352 354 356 358 1 2 359 356 20 34 38 42 257 315 30 32 46 58 354 57 35 49 56 105 17 108 122 37 124 134 138 158 171 188 244 123 67 67 107 116 117 108 112 109 108 141 289 306 308 304 300 308
354 353 352 349 348 351 357 2 7 20 24 24 307 329 346 26 34 71 32 1 41 93 94 93 70 99 81 80 94 62 100 149 130 142 145 211 171 123 126 115 110 116 116 109 104 108 99 19 342 316 299 303 305 296
346 345 345 347 353 347 350 357 0 359 53 27 38 38 30 327 42 78 104 63 104 133 143 136 102 93 92 62 69 82 87 134 128 136 218 190 144 129 146 139 122 111 102 101 115 112 72 19 326 298 297 293 290 292
339 341 342 352 356 355 349 355 358 1 53 51 29 17 67 359 42 34 112 103 95 117 122 114 102 108 104 107 131 111 132 133 142 199 227 166 168 150 134 126 133 129 136 127 136 35 347 288 291 283 268 276 279 289
345 339 344 346 348 344 352 356 4 33 67 63 49 50 43 332 46 26 21 95 70 127 126 120 100 119 120 113 118 116 124 180 205 222 202 162 155 153 150 150 151 150 151 112 126 245 260 295 282 283 293 310 313 305
342 354 354 347 348 0 351 2 18 41 43 51 62 98 67 47 354 37 63 102 143 137 134 63 102 95 91 115 136 187 168 214 222 197 157 146 158 170 171 174 173 140 144 155 106 213 294 315 298 318 332 338 331 313
2 23 343 347 347 334 357 24 26 34 69 51 322 9 153 197 210 218 169 107 127 82 96 96 127 173 108 135 195 182 209 215 164 150 148 151 155 156 159 155 161 185 195 154 105 17 341 330 3 351 345 340 330 317
309 339 332 334 347 346 353 46 61 32 16 248 319 266 227 233 167 221 199 153 120 113 125 163 135 168 182 191 215 213 182 118 126 143 134 137 155 154 154 164 201 229 108 83 40 306 335 355 355 343 331 336 329 325
320 318 317 317 336 314 343 1 39 5 276 289 267 244 252 264 246 340 122 160 124 121 123 151 151 197 213 212 202 183 186 178 165 156 151 143 137 154 165 214 134 102 104 284 285 273 336 16 3 342 342 338 333 329
338 340 340 337 63 295 268 231 231 288 296 287 292 236 238 223 87 115 139 165 162 156 174 191 214 208 195 213 192 180 173 166 144 142 157 154 178 177 188 160 126 134 129 99 91 52 52 42 26 341 332 329 325 336
354 304 342 352 345 301 292 308 227 233 274 251 248 228 245 159 201 189 171 168 192 205 224 220 216 227 184 262 218 160 153 157 172 157 156 157 165 152 167 162 138 124 112 99 127 106 98 8 322 334 337 324 305 308
273 359 4 351 2 316 284 264 273 305 229 258 277 216 227 214 211 199 157 182 200 39 11 345 340 300 221 220 204 188 145 130 125 113 94 122 154 144 128 97 127 134 141 139 159 49 338 329 319 313 308 323 309 293
22 54 25 331 12 21 264 296 274 230 223 233 218 256 235 222 227 158 178 72 55 3 334 307 308 284 249 124 144 124 124 137 140 143 146 148 125 119 110 82 47 19 156 104 94 73 40 356 3 354 342 319 330 322
45 46 34 320 102 268 332 290 266 272 294 303 230 258 245 241 164 202 69 51 350 346 350 342 318 253 142 115 97 105 102 137 128 128 144 141 138 127 125 122 94 72 71 76 72 59 38 22 2 19 12 354 335 332
52 332 62 351 352 4 350 340 323 353 324 315 339 353 6 336 47 66 70 27 4 0 354 353 17 38 72 67 52 46 28 52 129 116 66 101 115 117 137 104 86 60 48 77 64 46 31 26 21 13 6 9 354 336
88 313 81 179 307 11 323 323 353 350 333 327 359 328 335 49 62 57 59 10 26 5 2 7 9 33 46 37 44 30 7 351 76 92 60 55 73 137 152 149 143 72 24 24 21 12 357 358 358 356 352 352 347 355
98 291 16 26 333 319 345 3 354 48 11 356 345 337 358 44 63 59 83 20 25 17 16 14 19 32 28 18 12 6 3 6 45 91 88 71 59 49 64 91 94 43 359 16 16 9 344 337 335 335 327 325 319 334
152 110 128 296 47 22 132 14 39 8 352 348 2 21 67 33 135 22 24 9 29 57 43 32 28 20 18 11 7 2 1 16 91 98 98 80 66 61 57 60 56 35 24 7 346 333 324 315 308 306 309 310 310 310
90 337 102 25 12 38 85 139 280 6 352 336 14 323 83 60 0 32 38 22 31 60 56 40 19 10 26 27 31 24 18 24 47 72 65 69 80 48 33 37 29 24 14 353 336 315 304 297 294 290 285 284 292 298
263 84 95 74 102 192 246 70 276 299 334 335 319 106 84 66 26 0 52 42 46 59 65 57 32 39 32 23 12 21 35 46 41 41 14 358 335 332 346 0 357 358 355 350 340 330 330 331 311 342 334 316 308 302
12 74 76 81 196 251 267 311 293 186 26 21 14 108 139 142 339 357 36 44 62 61 81 35 18 21 24 15 10 1 352 0 12 359 337 311 300 303 318 322 321 326 332 336 334 331 327 323 321 317 312 308 305 292
26 103 123 70 294 298 14 41 2 35 343 52 2 36 46 66 240 241 201 132 108 140 188 171 326 318 310 293 272 266 267 292 316 327 327 321 324 328 320 316 332 341 326 316 314 307 299 301 302 310 310 312 323 14
58 61 55 63 9 3 347 57 25 351 16 22 343 329 227 193 231 229 292 190 181 178 200 241 266 284 293 291 287 304 267 282 289 293 306 319 315 317 343 349 334 320 309 305 302 293 291 289 288 303 355 83 85 85